Regional Weather Roundup
Issued by NWS Green Bay, WI

Home | Current Version | Previous Version | Text Only | Print | Product List | Glossary On
Versions: 1 2 3 4 5 6 7 8 9 10 11 12 13 14 15 16 17 18 19 20 21 22 23 24 25 26 27 28 29 30 31 32 33 34 35 36 37 38 39 40 41 42 43 44 45 46 47 48 49 50
000
ASUS43 KGRB 171510
RWRGRB

NORTH-CENTRAL AND NORTHEAST WISCONSIN REGIONAL WEATHER ROUNDUP
NATIONAL WEATHER SERVICE GREEN BAY WI
1000 AM CDT WED SEP 17 2014

WIZ005-009-010>012-018-019-171600-
NORTH CENTRAL WISCONSIN

CITY           SKY/WX    TMP DP  RH WIND       PRES   REMARKS
IRONWOOD       SUNNY     57  46  67 W8        29.93S
MANITOWISH WTR SUNNY     56  46  69 W3        29.95F
ARBOR VITAE    SUNNY     57  47  71 W6        29.96S
EAGLE RIVER    SUNNY     58  44  60 W5        29.96S
LAND O LAKES   SUNNY     59  45  58 W5        29.96F
RHINELANDER    SUNNY     56  46  69 W7        29.97S
PHILLIPS       SUNNY     56  47  72 SW3       29.96S
ANTIGO         MOSUNNY   56  47  72 W9        29.98S
TOMAHAWK       MOSUNNY   57  47  68 CALM      29.97F
MERRILL        PTSUNNY   55  48  77 W3        29.97F
$$

WIZ013-073-171600-
NORTHEAST WISCONSIN

CITY           SKY/WX    TMP DP  RH WIND       PRES   REMARKS
IRON MOUNTAIN  MOSUNNY   59  44  57 W8        29.95S
MARINETTE      MOSUNNY   57  46  67 W3        29.97S
OCONTO         MOSUNNY   58  48  69 W7        29.98F
$$

WIZ017-030-035>037-045-171600-
CENTRAL WISCONSIN

CITY           SKY/WX    TMP DP  RH WIND       PRES   REMARKS
MEDFORD        MOSUNNY   56  48  73 W6        29.97F
WAUSAU         MOSUNNY   55  47  74 S7        29.97F
MOSINEE        SUNNY     55  52  88 SW7       29.99F
MARSHFIELD     MOSUNNY   57  49  74 SW8       29.98F
WISC RAPIDS    CLOUDY    55  49  80 VRB5      30.01F
STEVENS POINT  PTSUNNY   55  45  69 SW7       29.99F
WAUPACA        MOSUNNY   61  50  65 W8        30.00F
SHAWANO        MOSUNNY   58  48  70 W6        29.99S
CLINTONVILLE   MOSUNNY   59  46  63 W8        29.98F
$$

WIZ038-039-048-051-171600-
FOX VALLEY

CITY           SKY/WX    TMP DP  RH WIND       PRES   REMARKS
NWS GREEN BAY  MOSUNNY   59  50  72 SW7       29.99F
APPLETON       MOSUNNY   55  46  71 W9        30.00F
OSHKOSH        PTSUNNY   60  49  66 VRB6      30.00F
FOND DU LAC    SUNNY     58  47  66 SW7       30.01F
$$

WIZ022-050-052-171600-
EAST CENTRAL WISCONSIN

CITY           SKY/WX    TMP DP  RH WIND       PRES   REMARKS
STURGEON BAY   MOSUNNY   59  46  63 W8        29.99S
MANITOWOC      SUNNY     61  47  59 W8        30.00F
SHEBOYGAN      SUNNY     62  45  53 W7        30.01F
$$

LMZ563-521-522-541>543-171600-
LAKESHORE

STATION/POSITION TIME  TEMP    WIND        PRES    VSBY  WAVE
                       AIR SEA DIR/SP/G                  HT/PER
                 (UTC) (F)     (DEG/KT/KT) (MB)    (MI)  (FT/S)
SHEBOYGAN LKSHOR 1500   60 52  240/  9/ 10 1016.4F
KEWAUNEE LKSHORE 1500   60     260/  6/  9 1014.6F
TWO RIVERS CG    1500   52 57              1017.2      6   0
NORTHPORT PIER   1500   60     290/  2/  9 1015.2S
N MID LAKE BUOY  1500   57 58  250/ 12/ 14 1015.0S         2/ 4
S GREEN BAY BUOY 1500   56     VRB 10/ 12  1016.2F
STURGEON BAY CG  1500   60 52  270/  4     1015.8      6   1
CHAMBERS ISLAND  1500   56     200/  5/ 10 1015.2F
MENOMINEE LKSHOR 1500   59     280/  5/  8 1015.6S
$$



USA.gov is the U.S. government's official web portal to all federal, state and local government web resources and services.